Regional Weather Roundup
Issued by NWS Goodland, KS

Home | Current Version | Previous Version | Text Only | Print | Product List | Glossary Off
Versions: 1 2 3 4 5 6 7 8 9 10 11 12 13 14 15 16 17 18 19 20 21 22 23 24 25 26 27 28 29 30 31 32 33 34 35 36 37 38 39 40 41 42 43 44 45 46 47 48 49 50

000
ASUS43 KGLD 200708
RWRGLD

GOODLAND FORECAST AREA HOURLY WEATHER ROUNDUP
NATIONAL WEATHER SERVICE GOODLAND KS
1200 AM MST MON NOV 20 2017

...OFFICIAL OBSERVATIONS...

CITY           SKY/WX    TMP DP  RH WIND       PRES   REMARKS
GOODLAND KS    CLOUDY    39  14  36 SW10      29.87F
HILL CITY KS   CLEAR     39  24  55 W9        29.88F
IMPERIAL NEB   CLOUDY    30  18  60 W8        29.85F
MCCOOK NEB     CLOUDY    37  22  54 SW7       29.84F
AKRON CO       CLOUDY    38  10  31 SW13      29.90F
BURLINGTON CO  CLOUDY    25  14  63 W12       29.90F WCI  14
LIMON CO       CLOUDY    24  15  68 NW6       29.95F
$$

...UNOFFICIAL OBSERVATIONS...

CITY           SKY/WX    TMP DP  RH WIND       PRES   REMARKS
COLBY KS       CLOUDY    28  23  80 SW8       29.89F
LENORA KS        N/A     38  32  79 SW8         N/A
NORTON KS      CLEAR     28  19  69 SW8       29.85
SHARON SPRINGS   N/A     29  17  60 W8          N/A
TRENTON NEB      N/A     37  32  82 W7          N/A
KIT CARSON CO    N/A     31  15  51 CALM        N/A
YUMA CO        FAIR      30  18  59 W10       29.88F
$$



USA.gov is the U.S. government's official web portal to all federal, state and local government web resources and services.